User: anonymous   Login
Location: Unspecified
(0.0000°N, 0.0000°E)
Time: 01:17:45
(UTC+00:00)
Language:

nSIGHT-1 - Orbit

View from above orbital plane
View from above orbital plane
View from above satellite
View from above satellite

Ground track
Ground track

The orbit data is extracted from the following two-line orbital elements,

1 42726U 98067MF  18200.49938727 +.00006062 +00000-0 +74015-4 0  9996
2 42726 051.6375 204.3767 0005495 001.8023 358.2990 15.61994106065454
Epoch (UTC): 19 July 2018 11:59:07
Eccentricity: 0.0005495
inclination: 51.6375°
perigee height: 378 km
apogee height: 385 km
right ascension of ascending node: 204.3767°
argument of perigee: 1.8023°
revolutions per day: 15.61994106
mean anomaly at epoch: 358.2990°
orbit number at epoch: 6545

The dashed part of the orbit path shows where the satellite is in the earth's shadow,  

DLR